| time (UTC) | temp F | wind direction | speed MPH | gust MPH | rain 1hr in | rain 24hr in | rain mn in | humidity % | barometer mb |
| 20260504031534 | 63 | 0 | 0.0 | 0.0 | 0.00 | 0.02 | 0.02 | 71 | 1013.3 |
| 20260504030035 | 63 | 0 | 0.0 | 0.0 | 0.00 | 0.02 | 0.02 | 71 | 1013.5 |
| 20260504024535 | 63 | 0 | 0.0 | 0.0 | 0.00 | 0.02 | 0.02 | 71 | 1013.6 |
| 20260504023036 | 63 | 0 | 0.0 | 0.0 | 0.00 | 0.02 | 0.02 | 70 | 1013.6 |
| 20260504021536 | 63 | 0 | 0.0 | 0.0 | 0.00 | 0.02 | 0.02 | 70 | 1013.6 |
| 20260504020035 | 63 | 0 | 0.0 | 0.0 | 0.00 | 0.01 | 0.01 | 70 | 1013.7 |
| 20260504014536 | 63 | 0 | 0.0 | 0.0 | 0.01 | 0.01 | 0.01 | 70 | 1013.7 |
| 20260504013042 | 63 | 0 | 0.0 | 0.0 | 0.01 | 0.01 | 0.01 | 69 | 1013.8 |
| 20260504011536 | 64 | 0 | 0.0 | 0.0 | 0.01 | 0.01 | 0.01 | 69 | 1013.9 |
| 20260504010047 | 64 | 0 | 0.0 | 0.0 | 0.00 | 0.00 | 0.00 | 68 | 1013.9 |
| 20260504004536 | 64 | 0 | 0.0 | 0.0 | 0.00 | 0.00 | 0.00 | 68 | 1014.0 |
| 20260504003039 | 64 | 0 | 0.0 | 0.0 | 0.00 | 0.00 | 0.00 | 68 | 1014.1 |
| 20260504001554 | 64 | 0 | 0.0 | 0.0 | 0.00 | 0.00 | 0.00 | 67 | 1014.1 |
| 20260504000041 | 65 | 0 | 0.0 | 5.0 | 0.00 | 0.00 | 0.00 | 68 | 1014.0 |
| 20260503234536 | 65 | 0 | 0.0 | 1.0 | 0.00 | 0.00 | 0.00 | 67 | 1014.2 |
| 20260503233039 | 65 | 144 | 0.0 | 4.0 | 0.00 | 0.00 | 0.00 | 67 | 1014.2 |
| 20260503231534 | 65 | 0 | 0.0 | 0.0 | 0.00 | 0.00 | 0.00 | 67 | 1014.3 |
| 20260503230033 | 65 | 0 | 0.0 | 0.0 | 0.00 | 0.00 | 0.00 | 67 | 1014.5 |
| 20260503224538 | 65 | 0 | 0.0 | 0.0 | 0.00 | 0.00 | 0.00 | 67 | 1014.5 |
| 20260503223039 | 65 | 0 | 0.0 | 0.0 | 0.00 | 0.00 | 0.00 | 67 | 1014.6 |
| 20260503221541 | 65 | 0 | 0.0 | 0.0 | 0.00 | 0.00 | 0.00 | 66 | 1014.7 |
| 20260503220047 | 65 | 0 | 0.0 | 0.0 | 0.00 | 0.00 | 0.00 | 66 | 1014.9 |
| 20260503214537 | 65 | 76 | 2.0 | 4.0 | 0.00 | 0.00 | 0.00 | 66 | 1015.0 |
| 20260503213038 | 66 | 76 | 2.0 | 7.0 | 0.00 | 0.00 | 0.00 | 64 | 1015.1 |
| 20260503211545 | 66 | 98 | 2.0 | 7.0 | 0.00 | 0.00 | 0.00 | 64 | 1015.0 |
| 20260503210033 | 66 | 81 | 3.0 | 8.0 | 0.00 | 0.00 | 0.00 | 63 | 1015.0 |
| 20260503204534 | 66 | 100 | 2.0 | 7.0 | 0.00 | 0.00 | 0.00 | 64 | 1014.9 |
| 20260503203035 | 66 | 82 | 3.0 | 8.0 | 0.00 | 0.00 | 0.00 | 64 | 1014.8 |
| 20260503201537 | 66 | 109 | 2.0 | 10.0 | 0.00 | 0.00 | 0.00 | 63 | 1014.4 |
| 20260503200038 | 66 | 128 | 5.0 | 10.0 | 0.00 | 0.00 | 0.00 | 63 | 1014.2 |
| 20260503194535 | 66 | 145 | 3.0 | 9.0 | 0.00 | 0.00 | 0.00 | 62 | 1014.0 |
| 20260503193042 | 66 | 131 | 3.0 | 11.0 | 0.00 | 0.00 | 0.00 | 62 | 1013.4 |
| 20260503191536 | 66 | 165 | 5.0 | 11.0 | 0.00 | 0.00 | 0.00 | 61 | 1013.2 |
| 20260503190036 | 67 | 115 | 3.0 | 10.0 | 0.00 | 0.00 | 0.00 | 61 | 1013.2 |
| 20260503184537 | 67 | 111 | 4.0 | 10.0 | 0.00 | 0.00 | 0.00 | 60 | 1013.0 |
| 20260503183040 | 67 | 90 | 6.0 | 10.0 | 0.00 | 0.00 | 0.00 | 59 | 1012.9 |
| 20260503181612 | 68 | 124 | 5.0 | 11.0 | 0.00 | 0.00 | 0.00 | 58 | 1012.9 |
| 20260503180032 | 68 | 113 | 4.0 | 12.0 | 0.00 | 0.00 | 0.00 | 57 | 1012.8 |
| 20260503174539 | 68 | 83 | 5.0 | 11.0 | 0.00 | 0.00 | 0.00 | 56 | 1012.8 |
| 20260503173046 | 69 | 67 | 4.0 | 10.0 | 0.00 | 0.00 | 0.00 | 55 | 1012.7 |
| 20260503171532 | 69 | 124 | 5.0 | 12.0 | 0.00 | 0.00 | 0.00 | 55 | 1012.5 |
| 20260503081538 | 66 | 117 | 5.0 | 10.0 | 0.00 | 0.00 | 0.00 | 61 | 1016.7 |
| 20260503071538 | 64 | 142 | 4.0 | 8.0 | 0.00 | 0.00 | 0.00 | 64 | 1016.3 |
| 20260503054537 | 64 | 220 | 5.0 | 11.0 | 0.00 | 0.00 | 0.00 | 65 | 1016.1 |
| 20260503053041 | 64 | 210 | 5.0 | 11.0 | 0.00 | 0.00 | 0.00 | 66 | 1015.8 |
| 20260503051536 | 64 | 216 | 2.0 | 10.0 | 0.00 | 0.00 | 0.00 | 67 | 1015.4 |
| 20260503050035 | 63 | 147 | 2.0 | 7.0 | 0.00 | 0.00 | 0.00 | 67 | 1015.2 |
| 20260503044607 | 63 | 0 | 0.0 | 0.0 | 0.00 | 0.00 | 0.00 | 67 | 1015.2 |
| 20260503043037 | 63 | 0 | 0.0 | 0.0 | 0.00 | 0.00 | 0.00 | 67 | 1014.9 |
| 20260503041537 | 63 | 0 | 0.0 | 0.0 | 0.00 | 0.00 | 0.00 | 67 | 1014.8 |
| 20260503040033 | 62 | 247 | 2.0 | 6.0 | 0.00 | 0.00 | 0.00 | 67 | 1015.1 |
| 20260503034534 | 62 | 306 | 1.0 | 4.0 | 0.00 | 0.00 | 0.00 | 66 | 1014.8 |
| 20260503033038 | 62 | 0 | 0.0 | 0.0 | 0.00 | 0.00 | 0.00 | 66 | 1015.1 |